<?xml version="1.0"?>
<gpx xmlns="http://www.topografix.com/GPX/1/1" xmlns:xsi="http://www.w3.org/2001/XMLSchema-instance" version="1.1" creator="GPX RubyGem 1.0.0 -- http://dougfales.github.io/gpx/" xsi:schemaLocation="http://www.topografix.com/GPX/1/1 http://www.topografix.com/GPX/1/1/gpx.xsd">
  <metadata>
    <name/>
    <time>2026-05-07T14:57:31+00:00</time>
    <bound minlat="90.0" minlon="180.0" maxlat="-90.0" maxlon="-180.0"/>
  </metadata>
  <trk>
    <name/>
    <trkseg>
      <trkpt lat="48.221616" lon="11.220245">
        <time>1970-01-01T00:00:00+00:00</time>
        <ele>518.0</ele>
      </trkpt>
      <trkpt lat="48.221514" lon="11.219617">
        <time>1970-01-01T00:00:00+00:00</time>
        <ele>517.0</ele>
      </trkpt>
      <trkpt lat="48.221524" lon="11.219564">
        <time>1970-01-01T00:00:00+00:00</time>
        <ele>517.0</ele>
      </trkpt>
      <trkpt lat="48.221609" lon="11.219483">
        <time>1970-01-01T00:00:00+00:00</time>
        <ele>518.0</ele>
      </trkpt>
      <trkpt lat="48.221599" lon="11.219401">
        <time>1970-01-01T00:00:00+00:00</time>
        <ele>518.0</ele>
      </trkpt>
      <trkpt lat="48.221566" lon="11.219363">
        <time>1970-01-01T00:00:00+00:00</time>
        <ele>518.0</ele>
      </trkpt>
      <trkpt lat="48.221546" lon="11.219277">
        <time>1970-01-01T00:00:00+00:00</time>
        <ele>517.0</ele>
      </trkpt>
      <trkpt lat="48.221521" lon="11.219065">
        <time>1970-01-01T00:00:00+00:00</time>
        <ele>517.0</ele>
      </trkpt>
      <trkpt lat="48.221571" lon="11.218694">
        <time>1970-01-01T00:00:00+00:00</time>
        <ele>518.0</ele>
      </trkpt>
      <trkpt lat="48.221615" lon="11.218481">
        <time>1970-01-01T00:00:00+00:00</time>
        <ele>520.0</ele>
      </trkpt>
      <trkpt lat="48.221686" lon="11.21836">
        <time>1970-01-01T00:00:00+00:00</time>
        <ele>522.0</ele>
      </trkpt>
      <trkpt lat="48.222122" lon="11.218216">
        <time>1970-01-01T00:00:00+00:00</time>
        <ele>527.0</ele>
      </trkpt>
      <trkpt lat="48.221955" lon="11.217643">
        <time>1970-01-01T00:00:00+00:00</time>
        <ele>525.0</ele>
      </trkpt>
      <trkpt lat="48.221891" lon="11.217142">
        <time>1970-01-01T00:00:00+00:00</time>
        <ele>522.0</ele>
      </trkpt>
      <trkpt lat="48.221871" lon="11.216659">
        <time>1970-01-01T00:00:00+00:00</time>
        <ele>523.0</ele>
      </trkpt>
      <trkpt lat="48.221923" lon="11.215894">
        <time>1970-01-01T00:00:00+00:00</time>
        <ele>524.0</ele>
      </trkpt>
      <trkpt lat="48.221844" lon="11.213639">
        <time>1970-01-01T00:00:00+00:00</time>
        <ele>522.0</ele>
      </trkpt>
      <trkpt lat="48.221889" lon="11.212858">
        <time>1970-01-01T00:00:00+00:00</time>
        <ele>522.0</ele>
      </trkpt>
      <trkpt lat="48.221871" lon="11.21277">
        <time>1970-01-01T00:00:00+00:00</time>
        <ele>522.0</ele>
      </trkpt>
      <trkpt lat="48.221837" lon="11.212724">
        <time>1970-01-01T00:00:00+00:00</time>
        <ele>521.0</ele>
      </trkpt>
      <trkpt lat="48.221823" lon="11.21266">
        <time>1970-01-01T00:00:00+00:00</time>
        <ele>521.0</ele>
      </trkpt>
      <trkpt lat="48.221626" lon="11.21258">
        <time>1970-01-01T00:00:00+00:00</time>
        <ele>520.0</ele>
      </trkpt>
      <trkpt lat="48.221271" lon="11.212618">
        <time>1970-01-01T00:00:00+00:00</time>
        <ele>520.0</ele>
      </trkpt>
      <trkpt lat="48.221174" lon="11.212643">
        <time>1970-01-01T00:00:00+00:00</time>
        <ele>519.0</ele>
      </trkpt>
      <trkpt lat="48.221131" lon="11.212655">
        <time>1970-01-01T00:00:00+00:00</time>
        <ele>519.0</ele>
      </trkpt>
      <trkpt lat="48.220537" lon="11.212812">
        <time>1970-01-01T00:00:00+00:00</time>
        <ele>518.0</ele>
      </trkpt>
      <trkpt lat="48.22039" lon="11.212825">
        <time>1970-01-01T00:00:00+00:00</time>
        <ele>519.0</ele>
      </trkpt>
      <trkpt lat="48.220235" lon="11.212791">
        <time>1970-01-01T00:00:00+00:00</time>
        <ele>518.0</ele>
      </trkpt>
      <trkpt lat="48.220182" lon="11.212776">
        <time>1970-01-01T00:00:00+00:00</time>
        <ele>518.0</ele>
      </trkpt>
      <trkpt lat="48.220088" lon="11.21274">
        <time>1970-01-01T00:00:00+00:00</time>
        <ele>518.0</ele>
      </trkpt>
      <trkpt lat="48.219929" lon="11.212692">
        <time>1970-01-01T00:00:00+00:00</time>
        <ele>518.0</ele>
      </trkpt>
      <trkpt lat="48.219575" lon="11.212438">
        <time>1970-01-01T00:00:00+00:00</time>
        <ele>519.0</ele>
      </trkpt>
      <trkpt lat="48.219484" lon="11.212281">
        <time>1970-01-01T00:00:00+00:00</time>
        <ele>520.0</ele>
      </trkpt>
      <trkpt lat="48.219438" lon="11.212084">
        <time>1970-01-01T00:00:00+00:00</time>
        <ele>520.0</ele>
      </trkpt>
      <trkpt lat="48.219418" lon="11.210877">
        <time>1970-01-01T00:00:00+00:00</time>
        <ele>521.0</ele>
      </trkpt>
      <trkpt lat="48.219228" lon="11.205322">
        <time>1970-01-01T00:00:00+00:00</time>
        <ele>522.0</ele>
      </trkpt>
      <trkpt lat="48.219203" lon="11.204431">
        <time>1970-01-01T00:00:00+00:00</time>
        <ele>521.0</ele>
      </trkpt>
      <trkpt lat="48.219149" lon="11.204067">
        <time>1970-01-01T00:00:00+00:00</time>
        <ele>521.0</ele>
      </trkpt>
      <trkpt lat="48.218552" lon="11.201724">
        <time>1970-01-01T00:00:00+00:00</time>
        <ele>522.0</ele>
      </trkpt>
      <trkpt lat="48.21845" lon="11.201219">
        <time>1970-01-01T00:00:00+00:00</time>
        <ele>523.0</ele>
      </trkpt>
      <trkpt lat="48.219152" lon="11.20078">
        <time>1970-01-01T00:00:00+00:00</time>
        <ele>524.0</ele>
      </trkpt>
      <trkpt lat="48.219373" lon="11.200705">
        <time>1970-01-01T00:00:00+00:00</time>
        <ele>524.0</ele>
      </trkpt>
      <trkpt lat="48.219459" lon="11.200715">
        <time>1970-01-01T00:00:00+00:00</time>
        <ele>523.0</ele>
      </trkpt>
      <trkpt lat="48.219548" lon="11.200794">
        <time>1970-01-01T00:00:00+00:00</time>
        <ele>522.0</ele>
      </trkpt>
      <trkpt lat="48.219548" lon="11.200794">
        <time>1970-01-01T00:00:00+00:00</time>
        <ele>522.0</ele>
      </trkpt>
      <trkpt lat="48.219459" lon="11.200715">
        <time>1970-01-01T00:00:00+00:00</time>
        <ele>523.0</ele>
      </trkpt>
      <trkpt lat="48.219373" lon="11.200705">
        <time>1970-01-01T00:00:00+00:00</time>
        <ele>524.0</ele>
      </trkpt>
      <trkpt lat="48.219152" lon="11.20078">
        <time>1970-01-01T00:00:00+00:00</time>
        <ele>524.0</ele>
      </trkpt>
      <trkpt lat="48.21845" lon="11.201219">
        <time>1970-01-01T00:00:00+00:00</time>
        <ele>523.0</ele>
      </trkpt>
      <trkpt lat="48.218552" lon="11.201724">
        <time>1970-01-01T00:00:00+00:00</time>
        <ele>522.0</ele>
      </trkpt>
      <trkpt lat="48.219149" lon="11.204067">
        <time>1970-01-01T00:00:00+00:00</time>
        <ele>521.0</ele>
      </trkpt>
      <trkpt lat="48.219203" lon="11.204431">
        <time>1970-01-01T00:00:00+00:00</time>
        <ele>521.0</ele>
      </trkpt>
      <trkpt lat="48.219228" lon="11.205322">
        <time>1970-01-01T00:00:00+00:00</time>
        <ele>522.0</ele>
      </trkpt>
      <trkpt lat="48.219418" lon="11.210877">
        <time>1970-01-01T00:00:00+00:00</time>
        <ele>521.0</ele>
      </trkpt>
      <trkpt lat="48.219438" lon="11.212084">
        <time>1970-01-01T00:00:00+00:00</time>
        <ele>520.0</ele>
      </trkpt>
      <trkpt lat="48.219484" lon="11.212281">
        <time>1970-01-01T00:00:00+00:00</time>
        <ele>520.0</ele>
      </trkpt>
      <trkpt lat="48.219575" lon="11.212438">
        <time>1970-01-01T00:00:00+00:00</time>
        <ele>519.0</ele>
      </trkpt>
      <trkpt lat="48.219929" lon="11.212692">
        <time>1970-01-01T00:00:00+00:00</time>
        <ele>518.0</ele>
      </trkpt>
      <trkpt lat="48.220088" lon="11.21274">
        <time>1970-01-01T00:00:00+00:00</time>
        <ele>518.0</ele>
      </trkpt>
      <trkpt lat="48.220182" lon="11.212776">
        <time>1970-01-01T00:00:00+00:00</time>
        <ele>518.0</ele>
      </trkpt>
      <trkpt lat="48.220235" lon="11.212791">
        <time>1970-01-01T00:00:00+00:00</time>
        <ele>518.0</ele>
      </trkpt>
      <trkpt lat="48.22039" lon="11.212825">
        <time>1970-01-01T00:00:00+00:00</time>
        <ele>519.0</ele>
      </trkpt>
      <trkpt lat="48.220537" lon="11.212812">
        <time>1970-01-01T00:00:00+00:00</time>
        <ele>518.0</ele>
      </trkpt>
      <trkpt lat="48.221131" lon="11.212655">
        <time>1970-01-01T00:00:00+00:00</time>
        <ele>519.0</ele>
      </trkpt>
      <trkpt lat="48.221174" lon="11.212643">
        <time>1970-01-01T00:00:00+00:00</time>
        <ele>519.0</ele>
      </trkpt>
      <trkpt lat="48.221271" lon="11.212618">
        <time>1970-01-01T00:00:00+00:00</time>
        <ele>520.0</ele>
      </trkpt>
      <trkpt lat="48.221626" lon="11.21258">
        <time>1970-01-01T00:00:00+00:00</time>
        <ele>520.0</ele>
      </trkpt>
      <trkpt lat="48.221823" lon="11.21266">
        <time>1970-01-01T00:00:00+00:00</time>
        <ele>521.0</ele>
      </trkpt>
      <trkpt lat="48.221837" lon="11.212724">
        <time>1970-01-01T00:00:00+00:00</time>
        <ele>521.0</ele>
      </trkpt>
      <trkpt lat="48.221871" lon="11.21277">
        <time>1970-01-01T00:00:00+00:00</time>
        <ele>522.0</ele>
      </trkpt>
      <trkpt lat="48.221889" lon="11.212858">
        <time>1970-01-01T00:00:00+00:00</time>
        <ele>522.0</ele>
      </trkpt>
      <trkpt lat="48.221844" lon="11.213639">
        <time>1970-01-01T00:00:00+00:00</time>
        <ele>522.0</ele>
      </trkpt>
      <trkpt lat="48.221923" lon="11.215894">
        <time>1970-01-01T00:00:00+00:00</time>
        <ele>524.0</ele>
      </trkpt>
      <trkpt lat="48.221871" lon="11.216659">
        <time>1970-01-01T00:00:00+00:00</time>
        <ele>523.0</ele>
      </trkpt>
      <trkpt lat="48.221891" lon="11.217142">
        <time>1970-01-01T00:00:00+00:00</time>
        <ele>522.0</ele>
      </trkpt>
      <trkpt lat="48.221955" lon="11.217643">
        <time>1970-01-01T00:00:00+00:00</time>
        <ele>525.0</ele>
      </trkpt>
      <trkpt lat="48.222122" lon="11.218216">
        <time>1970-01-01T00:00:00+00:00</time>
        <ele>527.0</ele>
      </trkpt>
      <trkpt lat="48.221686" lon="11.21836">
        <time>1970-01-01T00:00:00+00:00</time>
        <ele>522.0</ele>
      </trkpt>
      <trkpt lat="48.221615" lon="11.218481">
        <time>1970-01-01T00:00:00+00:00</time>
        <ele>520.0</ele>
      </trkpt>
      <trkpt lat="48.221571" lon="11.218694">
        <time>1970-01-01T00:00:00+00:00</time>
        <ele>518.0</ele>
      </trkpt>
      <trkpt lat="48.221521" lon="11.219065">
        <time>1970-01-01T00:00:00+00:00</time>
        <ele>517.0</ele>
      </trkpt>
      <trkpt lat="48.221546" lon="11.219277">
        <time>1970-01-01T00:00:00+00:00</time>
        <ele>517.0</ele>
      </trkpt>
      <trkpt lat="48.221566" lon="11.219363">
        <time>1970-01-01T00:00:00+00:00</time>
        <ele>518.0</ele>
      </trkpt>
      <trkpt lat="48.221599" lon="11.219401">
        <time>1970-01-01T00:00:00+00:00</time>
        <ele>518.0</ele>
      </trkpt>
      <trkpt lat="48.221609" lon="11.219483">
        <time>1970-01-01T00:00:00+00:00</time>
        <ele>518.0</ele>
      </trkpt>
      <trkpt lat="48.221524" lon="11.219564">
        <time>1970-01-01T00:00:00+00:00</time>
        <ele>517.0</ele>
      </trkpt>
      <trkpt lat="48.221514" lon="11.219617">
        <time>1970-01-01T00:00:00+00:00</time>
        <ele>517.0</ele>
      </trkpt>
      <trkpt lat="48.221616" lon="11.220245">
        <time>1970-01-01T00:00:00+00:00</time>
        <ele>518.0</ele>
      </trkpt>
    </trkseg>
  </trk>
</gpx>
